Tracking 32139 objects as of 16-Nov-2025
HD Live streaming from Space Station
objects crossing your sky now

STARLINK-35412

Track STARLINK-35412 now!
10-day predictions
STARLINK-35412 is classified as:


NORAD ID: 65797
Int'l Code: 2025-218G
Perigee: 555.5 km
Apogee: 557.8 km
Inclination: 97.6 °
Period: 95.6 minutes
Semi major axis: 6927 km
RCS: Unknown
Launch date: September 26, 2025
Source: United States (US)
Launch site: AIR FORCE EASTERN TEST RANGE (AFETR)
Your satellite tracking list
Your tracking list is empty




NASA's NSSDC Master Catalog

Two Line Element Set (TLE):
1 65797U 25218G   25319.84316144  .00008061  00000-0  56227-3 0  9993
2 65797  97.6021 180.8037 0001626  89.5905 270.5508 15.05648372  7846
Source of the keplerian elements: AFSPC